#timestamp,LO_Frequency,Hit 
1501754415.8,286046899.4,N
1501754435.6,286046898.9,N
1501754455.4,286046900.4,N
1501754475.3,286046900.0,N
1501754495.1,286046899.7,N
1501754515.8,286046899.8,N
1501754535.7,286046900.1,N
1501754555.5,286046902.0,N
1501754575.3,286046900.1,N
1501754595.2,286046899.5,N
1501754615.9,286046897.7,N
1501754635.7,286046898.2,N
1501754655.6,286046895.8,N
1501754675.4,286046895.8,N
1501754695.2,286046897.0,N
1501754715.0,286046897.0,N
1501754715.9,286046897.0,N
1501754735.8,286046894.6,N
1501754755.6,286046895.2,N
1501754775.4,286046895.5,N
1501754795.3,286046892.9,N
1501754815.1,286046895.5,N
1501754835.8,286046893.2,N
1501754855.7,286046892.8,N
1501754875.5,286046893.4,N
1501754895.3,286046892.8,N
1501754915.2,286046893.2,N
1501754935.9,286046892.5,N
1501754955.7,286046892.7,N
1501754975.5,286046893.3,N
1501754995.4,286046893.7,N
1501755015.2,286046891.5,N
1501755035.0,286046892.1,N
1501755035.9,286046892.1,N
1501755055.8,286046891.9,N
1501755075.6,286046892.1,N
1501755095.4,286046889.4,N
1501755115.3,286046890.2,N
1501755135.1,286046889.8,N
1501755136.0,286046889.8,N
1501755155.8,286046889.6,N
1501755175.7,286046889.9,N
1501755195.5,286046887.8,N
1501755215.3,286046890.6,N
1501755235.1,286046890.2,N
1501755255.9,286046890.6,N
1501755275.7,286046890.4,N
1501755295.5,286046890.4,N
1501755315.4,286046890.0,N
1501755335.2,286046887.8,N
1501755355.0,286046888.6,N
1501755355.9,286046888.6,N
1501755375.8,286046888.4,N
1501755395.6,286046888.8,N
1501755415.4,286046886.5,N
1501755435.3,286046887.2,N
1501755455.1,286046885.2,N
1501755456.0,286046885.2,N
1501755475.8,286046885.9,N
1501755495.7,286046883.0,N
1501755515.5,286046882.9,N
1501755535.3,286046883.8,N
1501755555.1,286046883.5,N
1501755575.9,286046881.4,N
1501755595.7,286046884.0,N
1501755615.5,286046881.3,N
1501755635.4,286046881.4,N
1501755655.2,286046882.7,N
1501755675.0,286046880.9,N
1501755675.9,286046880.9,N
1501755695.8,286046881.1,N
1501755715.6,286046880.5,N
1501755735.4,286046880.6,N
1501755755.3,286046880.7,N
1501755775.1,286046881.2,N
1501755776.0,286046881.2,N
1501755795.8,286046880.8,N
1501755815.6,286046881.2,N
1501755835.5,286046878.6,N
1501755855.3,286046879.1,N
1501755875.1,286046878.9,N
1501755895.9,286046878.4,N
1501755915.7,286046878.8,N
1501755935.5,286046879.0,N
1501755955.4,286046878.9,N
1501755975.2,286046877.0,N
1501755995.0,286046876.8,N
1501755995.9,286046876.8,N
1501756015.8,286046876.5,N
1501756035.6,286046877.7,N
1501756055.4,286046877.3,N
1501756075.2,286046877.4,N
1501756095.1,286046875.8,N
1501756096.0,286046875.8,N
1501756115.8,286046873.4,Y
1501756135.6,286046915.2,N
1501756155.5,286046915.1,N
1501756175.3,286046917.5,N
1501756195.1,286046915.1,N
1501756215.9,286046915.1,N
1501756235.7,286046918.0,N
1501756255.5,286046915.4,N
1501756275.4,286046915.1,N
1501756295.2,286046916.3,N
1501756315.0,286046915.8,N
1501756315.9,286046915.8,N
1501756335.8,286046916.3,N
1501756355.6,286046916.0,N
1501756375.4,286046913.4,N
1501756395.2,286046913.8,N
1501756415.1,286046912.5,N
1501756416.0,286046912.5,N
1501756435.8,286046912.5,N
1501756455.6,286046912.8,N
1501756475.5,286046912.7,N
1501756495.3,286046910.6,N
1501756515.1,286046911.3,N
1501756535.9,286046911.0,N
1501756555.7,286046910.3,N
1501756575.5,286046911.1,N
1501756595.4,286046911.6,N
1501756615.2,286046911.5,N
1501756635.0,286046909.0,N
1501756635.9,286046909.0,N
1501756655.8,286046909.7,N
1501756675.6,286046909.3,N
1501756695.4,286046910.0,N
1501756715.2,286046909.4,N
1501756735.1,286046909.9,N
1501756736.0,286046909.9,N
1501756755.8,286046910.0,N
1501756775.6,286046910.0,N
1501756795.5,286046907.1,N
1501756815.3,286046907.7,N
1501756835.1,286046909.5,N
1501756855.9,286046907.6,N
1501756875.7,286046907.2,N
1501756895.5,286046908.1,N
1501756915.4,286046907.8,N
1501756935.2,286046905.6,N
1501756955.0,286046906.2,N
1501756955.9,286046906.2,N
1501756975.7,286046906.6,N
1501756995.6,286046906.6,N
1501757015.4,286046903.7,N
1501757035.2,286046906.6,N
1501757055.1,286046903.7,N
1501757056.0,286046903.7,N
1501757075.8,286046906.8,N
1501757095.6,286046904.3,N
1501757115.5,286046904.6,N
1501757135.3,286046904.6,N
1501757155.1,286046902.5,N
1501757175.9,286046902.1,N
1501757195.7,286046902.6,N
1501757215.5,286046902.5,N
1501757235.3,286046903.5,N
1501757255.2,286046903.6,N
1501757275.0,286046903.6,N
1501757275.9,286046903.6,N
1501757295.7,286046901.2,N
1501757315.6,286046901.8,N
1501757335.4,286046901.6,N
1501757355.2,286046900.0,N
1501757375.1,286046900.4,N
1501757376.0,286046900.4,N
1501757395.8,286046900.1,N
1501757415.6,286046900.0,N
1501757435.5,286046900.1,N
1501757455.3,286046899.9,N
1501757475.1,286046899.1,N
1501757495.9,286046899.9,N
1501757515.7,286046900.2,N
1501757535.5,286046897.5,N
1501757555.3,286046897.7,N
1501757575.2,286046897.7,N
1501757595.9,286046898.2,N
1501757615.7,286046898.4,N
1501757635.6,286046897.6,N
1501757655.4,286046898.1,N
1501757675.2,286046895.8,N
1501757695.1,286046898.8,N
1501757696.0,286046898.8,N
1501757715.8,286046895.8,N
1501757735.6,286046895.9,N
1501757755.4,286046896.3,N
1501757775.3,286046896.4,N
1501757795.1,286046894.5,N
1501757815.8,286046894.6,N
1501757835.7,286046894.6,N
1501757855.5,286046894.3,N
1501757875.3,286046895.3,N
1501757895.2,286046895.5,N
1501757915.9,286046892.5,N
1501757935.7,286046893.2,N
1501757955.6,286046892.7,N
1501757975.4,286046894.0,N
1501757995.2,286046893.6,N
